AAL320P MROC-KDFW

Flight info

Callsign AAL320P
Flight time N/A
Altitude 36000
Route NANJO3U ULAPO UA502 MGA UZ512 BZE UB753 NAKAM
Aircraft B738/M-SDE2E3FGHIRWXY/LB1

Departure

Time 2026-04-30 20:26
Airport Juan Santamaría International Airport (MROC)

Arrival

Time N/A
Airport Dallas Fort Worth International Airport (KDFW)
Time Latitude Longitude Altitude Speed Heading
2026-04-30 19:30 9.99846 -84.20114 3011 ft 0 kts 338°
2026-04-30 20:12 9.99831 -84.20108 3011 ft 2 kts 338°
2026-04-30 20:12 9.99817 -84.20103 3011 ft 1 kts 338°
2026-04-30 20:12 9.99808 -84.20099 3011 ft 2 kts 326°
2026-04-30 20:13 9.99798 -84.20087 3011 ft 2 kts 297°
2026-04-30 20:13 9.99793 -84.20073 3011 ft 2 kts 271°
2026-04-30 20:13 9.99794 -84.20061 3011 ft 0 kts 252°
2026-04-30 20:13 9.99797 -84.20055 3011 ft 0 kts 249°
2026-04-30 20:17 9.99793 -84.20065 3011 ft 6 kts 250°
2026-04-30 20:17 9.99772 -84.20125 3011 ft 8 kts 250°
2026-04-30 20:17 9.99752 -84.20178 3011 ft 7 kts 249°
2026-04-30 20:18 9.99740 -84.20210 3011 ft 7 kts 249°
2026-04-30 20:18 9.99728 -84.20242 3011 ft 9 kts 249°
2026-04-30 20:18 9.99702 -84.20312 3011 ft 13 kts 250°
2026-04-30 20:18 9.99666 -84.20410 3011 ft 12 kts 249°
2026-04-30 20:19 9.99634 -84.20495 3011 ft 10 kts 249°
2026-04-30 20:19 9.99604 -84.20574 3011 ft 8 kts 249°
2026-04-30 20:19 9.99585 -84.20624 3011 ft 7 kts 250°
2026-04-30 20:19 9.99558 -84.20694 3011 ft 13 kts 249°
2026-04-30 20:20 9.99519 -84.20798 3011 ft 13 kts 249°
2026-04-30 20:20 9.99490 -84.20878 3011 ft 11 kts 249°
2026-04-30 20:20 9.99464 -84.20946 3011 ft 10 kts 249°
2026-04-30 20:20 9.99434 -84.21026 3011 ft 13 kts 248°
2026-04-30 20:21 9.99398 -84.21120 3011 ft 13 kts 251°
2026-04-30 20:21 9.99375 -84.21183 3011 ft 12 kts 249°
2026-04-30 20:21 9.99346 -84.21261 3011 ft 10 kts 249°
2026-04-30 20:21 9.99317 -84.21338 3011 ft 9 kts 249°
2026-04-30 20:22 9.99283 -84.21426 3011 ft 18 kts 250°
2026-04-30 20:22 9.99232 -84.21564 3011 ft 22 kts 250°
2026-04-30 20:22 9.99185 -84.21693 3011 ft 15 kts 249°
2026-04-30 20:22 9.99154 -84.21777 3011 ft 12 kts 250°
2026-04-30 20:23 9.99123 -84.21858 3011 ft 10 kts 249°
2026-04-30 20:23 9.99099 -84.21923 3011 ft 9 kts 251°
2026-04-30 20:23 9.99100 -84.21994 3011 ft 11 kts 280°
2026-04-30 20:23 9.99104 -84.22066 3011 ft 9 kts 258°
2026-04-30 20:24 9.99085 -84.22127 3011 ft 8 kts 250°
2026-04-30 20:24 9.99060 -84.22177 3011 ft 8 kts 231°
2026-04-30 20:24 9.98999 -84.22197 3011 ft 10 kts 166°
2026-04-30 20:24 9.98953 -84.22181 3011 ft 5 kts 160°
2026-04-30 20:25 9.98918 -84.22150 3011 ft 2 kts 77°
2026-04-30 20:25 9.98922 -84.22136 3011 ft 2 kts 70°
2026-04-30 20:26 9.99058 -84.21766 3011 ft 86 kts 69°
2026-04-30 20:26 9.99741 -84.19931 3167 ft 179 kts 71°
2026-04-30 20:26 10.00148 -84.18764 3902 ft 176 kts 70°
2026-04-30 20:27 10.01625 -84.16874 4987 ft 190 kts 18°
2026-04-30 20:27 10.04155 -84.17966 5348 ft 241 kts 301°
2026-04-30 20:28 10.05484 -84.21246 6370 ft 256 kts 305°
2026-04-30 20:28 10.06803 -84.24140 6920 ft 289 kts 284°
2026-04-30 20:29 10.08133 -84.28599 8475 ft 297 kts 290°
2026-04-30 20:30 10.10333 -84.34496 10540 ft 310 kts 298°
2026-04-30 20:30 10.15566 -84.39316 11464 ft 362 kts 322°
2026-04-30 20:31 10.21612 -84.44145 13037 ft 379 kts 322°
2026-04-30 20:32 10.27713 -84.49004 13443 ft 375 kts 322°
2026-04-30 20:32 10.31803 -84.52261 13767 ft 376 kts 322°
2026-04-30 20:33 10.33878 -84.53914 13931 ft 377 kts 322°
2026-04-30 20:33 10.38026 -84.57217 15159 ft 385 kts 322°
2026-04-30 20:33 10.40151 -84.58910 15893 ft 388 kts 322°
2026-04-30 20:34 10.44386 -84.62285 17270 ft 395 kts 322°
2026-04-30 20:34 10.48470 -84.65540 18506 ft 402 kts 322°
2026-04-30 20:35 10.50127 -84.66861 18986 ft 405 kts 322°
2026-04-30 20:35 10.52774 -84.68971 19727 ft 409 kts 322°
2026-04-30 20:35 10.57278 -84.72565 20926 ft 416 kts 322°
2026-04-30 20:36 10.59572 -84.74395 21499 ft 420 kts 322°
2026-04-30 20:36 10.61874 -84.76232 22032 ft 424 kts 322°
2026-04-30 20:36 10.66513 -84.79936 23155 ft 429 kts 322°
2026-04-30 20:37 10.68810 -84.81883 23670 ft 433 kts 318°
2026-04-30 20:37 10.70218 -84.83243 24003 ft 435 kts 316°
2026-04-30 20:37 10.73055 -84.86092 24663 ft 438 kts 316°
2026-04-30 20:37 10.75250 -84.88265 25151 ft 441 kts 316°
2026-04-30 20:38 10.77459 -84.90427 25621 ft 444 kts 316°
2026-04-30 20:38 10.79699 -84.92622 26083 ft 447 kts 316°
2026-04-30 20:38 10.81927 -84.94809 26529 ft 450 kts 316°
2026-04-30 20:39 10.86459 -84.99258 27382 ft 456 kts 316°
2026-04-30 20:39 10.88730 -85.01487 27783 ft 459 kts 316°
2026-04-30 20:39 10.91035 -85.03750 28144 ft 463 kts 317°
2026-04-30 20:40 10.95702 -85.08334 28843 ft 470 kts 317°
2026-04-30 20:40 10.98031 -85.10621 29302 ft 470 kts 317°
2026-04-30 20:40 11.00353 -85.12904 29888 ft 467 kts 317°
2026-04-30 20:41 11.05005 -85.17475 30890 ft 464 kts 318°
2026-04-30 20:41 11.07329 -85.19725 31402 ft 462 kts 319°
2026-04-30 20:41 11.09645 -85.21916 31729 ft 463 kts 319°
2026-04-30 20:41 11.11918 -85.24061 32057 ft 464 kts 319°
2026-04-30 20:42 11.14270 -85.26292 32460 ft 464 kts 319°
2026-04-30 20:42 11.16614 -85.28521 32851 ft 463 kts 319°
2026-04-30 20:42 11.21316 -85.32993 33618 ft 461 kts 319°
2026-04-30 20:43 11.23636 -85.35201 33981 ft 460 kts 319°
2026-04-30 20:43 11.25960 -85.37413 34339 ft 459 kts 319°
2026-04-30 20:43 11.28282 -85.39624 34673 ft 458 kts 319°
2026-04-30 20:44 11.32930 -85.44052 35329 ft 456 kts 319°
2026-04-30 20:44 11.35237 -85.46250 35625 ft 456 kts 319°
2026-04-30 20:44 11.39799 -85.50591 35770 ft 457 kts 320°
2026-04-30 20:45 11.44517 -85.54826 35771 ft 454 kts 321°
2026-04-30 20:45 11.49231 -85.59039 35771 ft 454 kts 321°
2026-04-30 20:46 11.58694 -85.67546 35771 ft 455 kts 321°
2026-04-30 20:47 11.65772 -85.73916 35771 ft 455 kts 321°
2026-04-30 20:48 11.72840 -85.80282 35771 ft 455 kts 321°
2026-04-30 20:48 11.77571 -85.84546 35771 ft 455 kts 321°
2026-04-30 20:49 11.82298 -85.88808 35771 ft 455 kts 321°
2026-04-30 20:50 11.89375 -85.95194 35771 ft 455 kts 321°
2026-04-30 20:50 11.94097 -85.99458 35771 ft 455 kts 321°
2026-04-30 20:51 11.98817 -86.03722 35771 ft 455 kts 321°
2026-04-30 20:51 12.05861 -86.10088 35771 ft 455 kts 321°
2026-04-30 20:52 12.10572 -86.14329 35770 ft 454 kts 322°
2026-04-30 20:52 12.15680 -86.17931 35770 ft 450 kts 335°
2026-04-30 20:53 12.18538 -86.19262 35775 ft 448 kts 340°
2026-04-30 20:53 12.24294 -86.21643 35796 ft 449 kts 340°
2026-04-30 20:54 12.32912 -86.25312 35864 ft 448 kts 340°
2026-04-30 20:55 12.41519 -86.28932 35965 ft 448 kts 340°
2026-04-30 20:55 12.46858 -86.31175 36008 ft 448 kts 340°
2026-04-30 20:56 12.55796 -86.34924 36020 ft 448 kts 340°
2026-04-30 20:57 12.64411 -86.38539 36020 ft 448 kts 340°
2026-04-30 20:57 12.70160 -86.40952 36020 ft 448 kts 340°
2026-04-30 20:58 12.78710 -86.44543 36020 ft 448 kts 340°
2026-04-30 20:58 12.84453 -86.46956 36020 ft 448 kts 340°
2026-04-30 20:59 12.93063 -86.50576 36020 ft 448 kts 340°
2026-04-30 21:00 13.04503 -86.55390 36020 ft 447 kts 339°
2026-04-30 21:01 13.13087 -86.59005 36020 ft 446 kts 339°
2026-04-30 21:02 13.21596 -86.62589 36020 ft 446 kts 339°
2026-04-30 21:02 13.27303 -86.64996 36020 ft 446 kts 339°
2026-04-30 21:03 13.32944 -86.67375 36020 ft 446 kts 339°
2026-04-30 21:03 13.38484 -86.69714 36020 ft 447 kts 339°
2026-04-30 21:04 13.44164 -86.72112 36020 ft 446 kts 339°
2026-04-30 21:04 13.52708 -86.75723 36020 ft 446 kts 339°
2026-04-30 21:05 13.58364 -86.78115 36020 ft 446 kts 339°
2026-04-30 21:05 13.63674 -86.80361 36020 ft 446 kts 339°
2026-04-30 21:06 13.69656 -86.82893 36020 ft 446 kts 339°
2026-04-30 21:06 13.75395 -86.85323 36020 ft 447 kts 339°
2026-04-30 21:07 13.81093 -86.87738 36020 ft 446 kts 339°
2026-04-30 21:07 13.86789 -86.90153 36020 ft 446 kts 339°
2026-04-30 21:08 13.92514 -86.92580 36020 ft 445 kts 339°
2026-04-30 21:08 13.98185 -86.94988 36020 ft 445 kts 339°
2026-04-30 21:09 14.03887 -86.97409 36020 ft 444 kts 339°
2026-04-30 21:09 14.09541 -86.99812 36020 ft 444 kts 339°
2026-04-30 21:10 14.15112 -87.02179 36020 ft 443 kts 339°
2026-04-30 21:10 14.20716 -87.04562 36020 ft 443 kts 339°
2026-04-30 21:11 14.26333 -87.06953 36020 ft 442 kts 339°
2026-04-30 21:11 14.31952 -87.09345 36020 ft 441 kts 338°
2026-04-30 21:12 14.37609 -87.11755 36020 ft 441 kts 338°
2026-04-30 21:12 14.43228 -87.14150 36020 ft 441 kts 338°
2026-04-30 21:13 14.48952 -87.16398 36020 ft 441 kts 341°
2026-04-30 21:13 14.54660 -87.18531 36020 ft 441 kts 341°
2026-04-30 21:14 14.60375 -87.20705 36020 ft 441 kts 341°
2026-04-30 21:14 14.66066 -87.22867 36020 ft 441 kts 341°
2026-04-30 21:15 14.71796 -87.25048 36020 ft 441 kts 340°
2026-04-30 21:15 14.77513 -87.27227 35986 ft 441 kts 340°
2026-04-30 21:16 14.83279 -87.29426 35933 ft 441 kts 340°
2026-04-30 21:16 14.88848 -87.31551 35871 ft 441 kts 340°
2026-04-30 21:17 14.94649 -87.33768 35844 ft 439 kts 340°
2026-04-30 21:17 15.00357 -87.35948 35832 ft 439 kts 339°
2026-04-30 21:18 15.06083 -87.38139 35834 ft 442 kts 339°
2026-04-30 21:18 15.11859 -87.40349 35850 ft 442 kts 339°
2026-04-30 21:19 15.17607 -87.42548 35863 ft 442 kts 339°
2026-04-30 21:19 15.23309 -87.44732 35866 ft 441 kts 339°
2026-04-30 21:20 15.29087 -87.46947 35861 ft 441 kts 339°
2026-04-30 21:20 15.34796 -87.49136 35856 ft 442 kts 339°
2026-04-30 21:21 15.40552 -87.51345 35859 ft 441 kts 339°
2026-04-30 21:22 15.49149 -87.54646 35875 ft 441 kts 339°
2026-04-30 21:23 15.60646 -87.59066 35885 ft 442 kts 339°
2026-04-30 21:23 15.69206 -87.62360 35880 ft 441 kts 339°
2026-04-30 21:24 15.74944 -87.64571 35879 ft 441 kts 339°
2026-04-30 21:24 15.80541 -87.66727 35881 ft 441 kts 339°
2026-04-30 21:25 15.89127 -87.70037 35885 ft 441 kts 339°
2026-04-30 21:26 15.97749 -87.73365 35885 ft 441 kts 339°
2026-04-30 21:27 16.06364 -87.76693 35885 ft 441 kts 339°
2026-04-30 21:27 16.12095 -87.78909 35885 ft 441 kts 339°
2026-04-30 21:28 16.20745 -87.82048 35856 ft 442 kts 340°
2026-04-30 21:29 16.29428 -87.85184 35855 ft 442 kts 340°
2026-04-30 21:30 16.43882 -87.90414 35837 ft 442 kts 340°
2026-04-30 21:31 16.58319 -87.95651 35843 ft 442 kts 340°
2026-04-30 21:32 16.67023 -87.98812 35861 ft 442 kts 340°
2026-04-30 21:32 16.72758 -88.00897 35862 ft 442 kts 340°
2026-04-30 21:33 16.81431 -88.04053 35862 ft 442 kts 340°
2026-04-30 21:34 16.87219 -88.06160 35862 ft 442 kts 340°
2026-04-30 21:34 16.95857 -88.09354 35862 ft 442 kts 339°
2026-04-30 21:35 17.01628 -88.11549 35862 ft 442 kts 339°
2026-04-30 21:35 17.07404 -88.13734 35862 ft 443 kts 339°
2026-04-30 21:36 17.13182 -88.15923 35862 ft 444 kts 339°
2026-04-30 21:37 17.24762 -88.20311 35862 ft 444 kts 339°
2026-04-30 21:37 17.30532 -88.22500 35862 ft 444 kts 339°
2026-04-30 21:38 17.36311 -88.24693 35862 ft 444 kts 339°
2026-04-30 21:38 17.42121 -88.26900 35862 ft 444 kts 339°
2026-04-30 21:39 17.47877 -88.29087 35862 ft 444 kts 339°
2026-04-30 21:39 17.53683 -88.31296 35862 ft 444 kts 339°
2026-04-30 21:40 17.59471 -88.33537 35862 ft 444 kts 339°
2026-04-30 21:40 17.65236 -88.35792 35862 ft 444 kts 339°
2026-04-30 21:41 17.70984 -88.38034 35862 ft 444 kts 339°
2026-04-30 21:41 17.76747 -88.40284 35862 ft 444 kts 339°
2026-04-30 21:42 17.82536 -88.42545 35862 ft 444 kts 339°
2026-04-30 21:42 17.88293 -88.44796 35862 ft 444 kts 339°
2026-04-30 21:43 17.94068 -88.47054 35862 ft 444 kts 339°
2026-04-30 21:43 17.99833 -88.49287 35862 ft 444 kts 339°
2026-04-30 21:44 18.05582 -88.51512 35862 ft 444 kts 339°
2026-04-30 21:44 18.11283 -88.53722 35862 ft 444 kts 339°
2026-04-30 21:45 18.17071 -88.55967 35862 ft 444 kts 339°
2026-04-30 21:45 18.22849 -88.58222 35862 ft 444 kts 339°
2026-04-30 21:46 18.28612 -88.60477 35862 ft 444 kts 339°
2026-04-30 21:46 18.34388 -88.62737 35862 ft 444 kts 339°
2026-04-30 21:47 18.40156 -88.64996 35862 ft 444 kts 339°
2026-04-30 21:47 18.45935 -88.67254 35862 ft 444 kts 339°
2026-04-30 21:48 18.51632 -88.69479 35862 ft 444 kts 339°
2026-04-30 21:48 18.57407 -88.71736 35862 ft 444 kts 339°
2026-04-30 21:49 18.63206 -88.74005 35862 ft 444 kts 339°
2026-04-30 21:49 18.68942 -88.76251 35862 ft 444 kts 339°
2026-04-30 21:50 18.74729 -88.78519 35862 ft 444 kts 339°
2026-04-30 21:50 18.80513 -88.80787 35862 ft 444 kts 339°
2026-04-30 21:51 18.86268 -88.83044 35862 ft 444 kts 339°
2026-04-30 21:51 18.92017 -88.85302 35862 ft 444 kts 339°
2026-04-30 21:52 18.97818 -88.87582 35862 ft 445 kts 338°
2026-04-30 21:52 19.03589 -88.89851 35862 ft 447 kts 338°
2026-04-30 21:53 19.09402 -88.92139 35862 ft 449 kts 338°
2026-04-30 21:53 19.15244 -88.94441 35862 ft 448 kts 338°
2026-04-30 21:54 19.21036 -88.96723 35862 ft 447 kts 338°
2026-04-30 21:54 19.26843 -88.99013 35862 ft 447 kts 338°
2026-04-30 21:55 19.32673 -89.01314 35862 ft 447 kts 338°
2026-04-30 21:55 19.38423 -89.03659 35862 ft 446 kts 334°
2026-04-30 21:56 19.43915 -89.06638 35862 ft 445 kts 330°
2026-04-30 21:56 19.49426 -89.09621 35862 ft 445 kts 331°
2026-04-30 21:57 19.54905 -89.12576 35862 ft 445 kts 331°
2026-04-30 21:57 19.60429 -89.15565 35862 ft 445 kts 331°
2026-04-30 21:58 19.65907 -89.18528 35862 ft 445 kts 331°
2026-04-30 21:58 19.71359 -89.21479 35862 ft 445 kts 331°
2026-04-30 21:59 19.76861 -89.24460 35862 ft 445 kts 331°
2026-04-30 22:00 19.85111 -89.28934 35862 ft 445 kts 331°
2026-04-30 22:00 19.93318 -89.33390 35862 ft 445 kts 331°
2026-04-30 22:01 19.98772 -89.36354 35862 ft 445 kts 331°
2026-04-30 22:01 20.04288 -89.39355 35862 ft 445 kts 331°
2026-04-30 22:02 20.09766 -89.42337 35862 ft 445 kts 331°
2026-04-30 22:02 20.15263 -89.45330 35862 ft 445 kts 331°
2026-04-30 22:03 20.20776 -89.48335 35862 ft 445 kts 331°
2026-04-30 22:03 20.26289 -89.51343 35862 ft 445 kts 331°
2026-04-30 22:04 20.31752 -89.54326 35862 ft 445 kts 331°
2026-04-30 22:05 20.40029 -89.58850 35862 ft 445 kts 331°
2026-04-30 22:05 20.45483 -89.61835 35862 ft 445 kts 331°
2026-04-30 22:06 20.50901 -89.64802 35862 ft 445 kts 331°
2026-04-30 22:06 20.59197 -89.69349 35862 ft 445 kts 331°
2026-04-30 22:07 20.64680 -89.72357 35862 ft 445 kts 331°
2026-04-30 22:07 20.70161 -89.75367 35862 ft 445 kts 331°
2026-04-30 22:08 20.75041 -89.78049 35862 ft 445 kts 331°
2026-04-30 22:08 20.81343 -89.81515 35862 ft 445 kts 331°
2026-04-30 22:09 20.86436 -89.84319 35862 ft 445 kts 331°
2026-04-30 22:09 20.92222 -89.87506 35862 ft 445 kts 331°
2026-04-30 22:10 20.97691 -89.90522 35862 ft 445 kts 331°
2026-04-30 22:10 21.03128 -89.93522 35862 ft 441 kts 331°
2026-04-30 22:11 21.11222 -89.97992 35862 ft 434 kts 331°
2026-04-30 22:12 21.16590 -90.00960 35862 ft 433 kts 331°
2026-04-30 22:12 21.21897 -90.03897 35862 ft 434 kts 331°
2026-04-30 22:13 21.27276 -90.06877 35862 ft 435 kts 331°
2026-04-30 22:13 21.32615 -90.09837 35862 ft 434 kts 331°
2026-04-30 22:14 21.37968 -90.12806 35862 ft 434 kts 331°
2026-04-30 22:14 21.43311 -90.15773 35862 ft 434 kts 331°
2026-04-30 22:15 21.48688 -90.18761 35862 ft 434 kts 331°
2026-04-30 22:15 21.54014 -90.21723 35862 ft 434 kts 331°
2026-04-30 22:16 21.59376 -90.24708 35862 ft 434 kts 331°
2026-04-30 22:17 21.70079 -90.30673 35862 ft 434 kts 331°
2026-04-30 22:17 21.78052 -90.35123 35862 ft 434 kts 331°
2026-04-30 22:18 21.85806 -90.39458 35862 ft 434 kts 331°
2026-04-30 22:19 21.93645 -90.43843 35862 ft 434 kts 331°
2026-04-30 22:20 21.94705 -90.44437 35862 ft 434 kts 331°
2026-04-30 22:21 22.00063 -90.47439 35862 ft 434 kts 331°
2026-04-30 22:21 22.05240 -90.50341 35862 ft 434 kts 331°
2026-04-30 22:22 22.06612 -90.51111 35862 ft 434 kts 331°
2026-04-30 22:22 22.11955 -90.54110 35862 ft 434 kts 331°
2026-04-30 22:23 22.17236 -90.57076 35862 ft 434 kts 331°
2026-04-30 22:23 22.22605 -90.60094 35862 ft 434 kts 331°
2026-04-30 22:24 22.27932 -90.63091 35862 ft 434 kts 331°
2026-04-30 22:24 22.33282 -90.66105 35862 ft 434 kts 330°
2026-04-30 22:25 22.38610 -90.69109 35862 ft 434 kts 330°
2026-04-30 22:25 22.43942 -90.72117 35862 ft 434 kts 330°
2026-04-30 22:26 22.51941 -90.76635 35862 ft 434 kts 330°
2026-04-30 22:27 22.57260 -90.79642 35862 ft 434 kts 330°
2026-04-30 22:27 22.65288 -90.84186 35862 ft 434 kts 330°
2026-04-30 22:28 22.73291 -90.88723 35898 ft 434 kts 330°
2026-04-30 22:29 22.83984 -90.94792 35899 ft 434 kts 330°
2026-04-30 22:31 23.02404 -91.05271 35899 ft 420 kts 329°
2026-04-30 22:32 23.15287 -91.12621 35899 ft 420 kts 329°
2026-04-30 22:33 23.28170 -91.19988 35899 ft 419 kts 329°
2026-04-30 22:35 23.40920 -91.27293 35899 ft 419 kts 329°
2026-04-30 22:36 23.53795 -91.34688 35899 ft 419 kts 329°
2026-04-30 22:37 23.64083 -91.40608 35899 ft 419 kts 329°
2026-04-30 22:38 23.74251 -91.46469 35899 ft 419 kts 329°
2026-04-30 22:39 23.81952 -91.50916 35899 ft 419 kts 329°
2026-04-30 22:40 23.96982 -91.59612 35903 ft 419 kts 329°
2026-04-30 22:41 24.09555 -91.66904 35908 ft 419 kts 328°
2026-04-30 22:43 24.25342 -91.76081 35908 ft 419 kts 328°
2026-04-30 22:44 24.35591 -91.82053 35908 ft 419 kts 328°
2026-04-30 22:45 24.50667 -91.90859 35908 ft 419 kts 328°
2026-04-30 22:47 24.66280 -92.00003 35908 ft 419 kts 328°
2026-04-30 22:48 24.76512 -92.06010 35908 ft 419 kts 328°
2026-04-30 22:49 24.91900 -92.15067 35908 ft 419 kts 328°
2026-04-30 22:51 25.07133 -92.24052 35908 ft 408 kts 327°
2026-04-30 22:52 25.14560 -92.28442 35908 ft 401 kts 327°
2026-04-30 22:53 25.24391 -92.34266 35908 ft 403 kts 327°
2026-04-30 22:53 25.31704 -92.38604 35908 ft 403 kts 327°
2026-04-30 22:55 25.44016 -92.45922 35898 ft 403 kts 327°
2026-04-30 22:56 25.53845 -92.51776 35886 ft 403 kts 327°
2026-04-30 22:57 25.66110 -92.59099 35872 ft 403 kts 327°
2026-04-30 22:58 25.75952 -92.64986 35862 ft 403 kts 327°
2026-04-30 22:59 25.90701 -92.73827 35887 ft 403 kts 326°